COSMOS 2491 DEB, 57550

Orbit data source: Space-Track

COSMOS 2491 DEB, 57550 is space debris in LEO originally from a launch on Wed, 25 Dec 2013 UTC launched from the Plesetsk Missile And Space Complex (PKMTR). Debris objects in space refer to the collection of defunct objects orbiting the Earth. Examples of debris include non-operational satellites, rocket bodies, and fragments generated from explosions, collisions, or faulty payload assembly.

Loading next visibility...
Identifier
57550, 2013-076AM
Orbit
LEO
Country
Flag of CISCIS
Related business
Manufacturer
TsNIIKhM
Mission
Spacecraft
Bus & Motor
Unknown
Mass
Unknown
Launch date (UTC)
2013-12-25 (12 years ago)
Launch vehicle
Unknown
Launch site
Plesetsk Missile And Space Complex (PKMTR)
Object type
Payload
Rocket body
Debris
Shape & HBR
Unknown shape, 0.1 m
Radar Cross Section
Small (<0.1 m²)

Expand to show TLE details & history
Last TLE update: 2 days ago

TLE from 2 days ago
0 COSMOS 2491 DEB
1 57550U 13076AM  25309.55384581  .00002034  00000-0  91416-2 0  9999
2 57550  82.4545 245.8497 0169634 283.7370  74.4896 12.73807518115603
Epoch: 2025-11-05T13:17Z
TLE epoch observation values (Epoch: 2025-11-05T13:17:32.277Z)
Latitude
-0.00003°
Longitude
1.44035°
Altitude
1,336.159 km
Speed
7.205 km/s
True Right ascension
16h 23m 23s
True Declination
0° 00' 00"
Sunlit
Object was in daylight at epoch
Visualization orbit readout
Latitude
Unknown
Longitude
Unknown
Altitude
Unknown
Speed
Unknown
Apparent Right ascension
Unknown
Apparent Declination
Unknown
Sunlit
N/A
Visualization observer readout
Local Sidereal Time
22:09:24
Azimuth
Unknown
Elevation
Unknown
Doppler factor
Unknown
Orbital elements
Apogee altitude
1,495.106 km
Perigee altitude
1,232.447 km
Semi-major axis
7,741.914 km
Eccentricity
0.01696
Inclination
82.4545°
RAAN
245.8497°
Arg. of periapsis
283.737°
True anomaly
76.37301°
Mean anomaly
74.4896°
Eccentric anomaly
75.43028°
Mean motion
3.18618 °/min
Orbital period
112.99 mins
BSTAR
0.0091416
Loading maneuver chart data...
Computing Atmospheric mass density...
Loading historical data...
Loading historical data...
Loading historical data...
Loading historical data...
Loading historical data...
Loading historical data...
Loading historical data...

Documentation

Showing up to 5 results
|